Location: Asheville, NC
(35.6000°N, 82.5500°W)
Time: 21:50:25
(UTC-04:00)

DUCHIFAT 1 - Visible Passes

Search period start: 25 April 2018 00:00
Search period end: 05 May 2018 00:00
Orbit: 588 x 606 km, 97.9° (Epoch: 24 April)

Date Brightness Start Highest point End Pass type
(mag) Time Alt. Az. Time Alt. Az. Time Alt. Az.
28 Apr ? 02:18:30 10° N 02:18:34 10° N 02:18:34 10° N visible
29 Apr ? 02:28:52 10° N 02:28:57 10° N 02:28:57 10° N visible
30 Apr ? 02:39:17 10° NNW 02:39:20 10° NNW 02:39:20 10° NNW visible
03 May ? 01:33:42 10° NNE 01:33:46 10° NNE 01:33:46 10° NNE visible
04 May ? 01:43:48 10° NNE 01:44:08 12° NNE 01:44:08 12° NNE visible
